Location: Bellflower
(33.8817°N, 118.1170°W)
Time: 12:26:03
(UTC+00:00)

Meteor 1-4 Rocket - Pass Details

Date: 23 November 2020
Orbit: 449 x 500 km, 81.2° (Epoch: 21 January)

Event Time Altitude Azimuth Distance (km) Brightness Sun altitude
Rises 13:45:50 0° 351° (N) 2,465 5.9 -9.9°
Reaches altitude 10° 13:47:55 10° 351° (N) 1,585 4.9 -9.5°
Maximum altitude 13:51:22 85° 266° (W) 455 2.3 -8.8°
Drops below altitude 10° 13:54:47 10° 175° (S) 1,570 5.5 -8.2°
Sets 13:56:50 0° 174° (S) 2,439 6.5 -7.8°
